Pagrindinis puslapis
METAR-TAF:

METAR-TAF

Oro uostai :

Montes Claros, Minas Žeraisas, Brazilija

platuma: 16-43S, ilguma: 043-52W, Aukštis: 646 m

Dabartinis oras

Ataskaita buvo paskelbta 2 valandos ir 12 minutes, ne 03:00 UTC
Ramus vėjas
Temperatūra 22°C
Drėgmė 78%
Slėgis 1016 hPa
Matomumas 10 km arba daugiau
nėra debesų žemiau 1500 m ir nėra kamuolinių lietaus debesų

METAR: SBMK 010300Z 00000KT CAVOK 22/18 Q1016

Laikas: 02:12 (05:12 UTC)


TAF: trūkstamas

Orai ataskaitas ir orų prognozės (METAR, TAF).

turimą stotys yra geltonos ir raudonos taškus žemėlapyje.

Perkelti pele per norėdami pamatyti stoties vardą.

Tada spustelėkite, norėdami matyti oro stebėjimo ir prognozės.

Norėdami pakeisti žemėlapį: spustelėkite ant žalios mygtukų su juodo kryžiaus žemyn,; žalią mygtuką su brūkšneliu, jei norite nutolinti; arba žalių rodyklių gretimoms žemėlapius.


METAR-TAF: